User: anonymous   Login
Location: Red Shale Campground
(45.5700°N, 106.1600°W)
Time: 18:57:28
(UTC-07:00)
Language:

FENGYUN 3A - Orbit

View from above orbital plane
View from above orbital plane
View from above satellite
View from above satellite

Ground track
Ground track

The orbit data is extracted from the following two-line orbital elements,

1 32958U 08026A   14354.21771786  .00000158  00000-0  94787-4 0  6427
2 32958 098.5311 046.5486 0010287 040.7651 319.4294 14.19506618340235
Epoch (UTC): 20 December 2014 05:13:30
Eccentricity: 0.0010287
inclination: 98.5311°
perigee height: 819 km
apogee height: 834 km
right ascension of ascending node: 46.5486°
argument of perigee: 40.7651°
revolutions per day: 14.19506618
mean anomaly at epoch: 319.4294°
orbit number at epoch: 34023

The dashed part of the orbit path shows where the satellite is in the earth's shadow,  

DLR